Dewpoint
46 47 47 45 45 44 44 42 40 35 33 32 33 37 43 44 46 44 45 49 49 46 44 43 42 41 40 39 38 38 38 37 37 38 38 38 39 39
46 46 44 45 44 44 44 43 41 39 36 31 31 34 41 43 45 43 44 46 46 44 42 41 40 39 39 37 37 36 36 36 36 36 37 38 37 37
45 44 42 43 44 43 43 41 36 35 35 32 31 33 38 42 40 41 42 41 42 43 41 41 40 38 38 37 36 35 34 34 35 35 36 36 36 36
43 42 38 41 44 44 42 39 35 34 33 30 31 32 34 38 37 38 38 38 38 42 41 40 39 38 36 36 35 33 33 33 33 33 34 34 34 35
40 39 36 39 42 43 41 37 36 32 33 31 31 31 32 36 35 35 34 35 35 41 40 40 38 37 36 35 34 33 32 31 31 31 32 32 33 34
39 38 35 36 39 40 38 36 34 33 33 32 31 30 32 33 35 33 29 30 32 35 37 37 38 37 35 35 33 32 31 30 30 30 31 31 31 32
38 35 35 36 39 39 36 36 33 32 32 31 30 30 29 32 33 31 27 26 28 29 30 32 33 33 31 34 33 33 30 29 30 30 30 30 30 31
37 35 34 37 39 41 40 39 35 32 32 32 31 29 28 30 32 29 26 24 23 27 28 28 31 31 29 30 34 34 31 29 29 29 29 29 30 30
38 35 34 34 38 37 41 41 39 39 36 32 30 30 29 29 31 28 25 24 23 24 26 25 26 27 27 27 33 34 32 29 28 29 29 28 28 29
42 37 35 36 36 37 38 37 36 36 35 31 32 31 31 30 30 29 27 24 24 24 24 23 23 22 24 26 32 34 32 30 28 28 27 26 27 27
41 39 36 36 39 40 36 36 36 36 39 38 36 37 37 36 33 28 25 24 22 22 23 23 22 22 22 22 25 31 32 31 29 27 24 25 26 26
41 38 41 37 41 41 35 35 34 35 36 36 37 37 37 35 36 29 26 26 23 21 23 25 23 23 22 24 25 28 29 31 29 23 22 24 24 23
40 37 37 41 41 40 37 34 33 35 37 34 34 34 33 33 31 28 27 27 25 26 25 28 28 27 29 24 25 25 24 24 21 20 22 22 23 23
42 38 38 41 41 40 38 38 39 36 33 32 32 32 31 30 28 28 29 29 29 28 27 28 29 29 29 26 23 24 24 23 20 20 21 21 22 23
43 41 40 41 40 39 38 39 38 33 32 31 31 30 29 28 28 28 27 27 27 28 29 28 31 31 30 28 26 25 24 22 21 21 20 20 20 21
44 43 41 40 39 38 38 37 33 32 31 31 30 28 28 28 28 28 27 27 27 25 26 29 30 30 29 28 27 24 23 20 22 21 20 21 21 21
43 42 41 39 38 37 36 34 33 32 30 29 28 28 28 27 27 28 27 28 25 24 24 26 26 27 27 27 24 23 22 22 22 21 20 20 20 19
42 40 39 39 38 37 35 32 32 31 30 29 28 28 27 27 27 28 28 28 25 24 24 25 25 24 24 23 25 22 22 21 21 21 20 17 17 18
41 40 39 38 38 36 35 32 32 31 30 29 29 29 28 28 28 28 28 27 26 25 26 26 24 23 20 19 22 22 20 20 19 17 19 18 17 18
41 40 39 38 38 37 34 33 32 31 30 30 30 29 29 29 29 29 28 26 26 26 25 26 24 24 22 21 19 21 19 19 17 16 15 18 19 22
39 39 39 38 37 36 35 34 32 31 31 30 30 30 30 30 31 30 28 29 28 26 24 23 24 24 22 21 19 19 21 21 20 17 16 12 14 15
38 38 38 37 36 35 34 33 32 32 32 32 32 32 32 32 31 30 29 29 27 26 24 22 22 22 20 18 16 16 18 19 19 20 19 19 12 8
38 37 36 36 36 35 34 33 33 33 33 33 33 33 32 31 31 30 30 28 26 23 21 20 21 21 18 17 16 15 14 16 17 17 17 19 19 20
Lifted_Index
6 7 9 10 11 11 12 12 12 12 12 13 14 15 15 15 15 16 16 16 16 17 17 18 17 17 17 17 18 19 20 21 21 20 20 20 19 19
6 7 8 9 11 11 11 12 12 12 12 13 14 14 15 15 16 16 16 16 17 17 18 18 18 17 17 18 18 19 20 21 21 21 20 20 20 19
6 6 7 9 10 11 12 12 12 12 12 13 13 14 15 16 16 16 17 17 17 18 19 18 18 18 18 18 18 19 20 21 21 21 21 21 20 20
5 6 6 8 10 11 12 12 12 12 12 13 14 14 15 16 16 17 17 18 18 19 19 19 19 19 18 18 18 19 20 21 22 22 22 21 21 21
4 5 5 7 9 11 12 13 13 13 13 13 14 14 15 16 16 17 17 18 18 19 20 20 20 20 19 19 19 19 20 21 22 23 23 22 22 22
4 4 5 6 8 10 12 13 13 13 13 14 14 14 15 15 16 16 16 17 18 19 19 20 20 20 20 19 19 19 20 22 23 23 23 22 22 22
4 4 4 6 7 9 11 13 14 14 14 14 14 14 14 14 14 14 14 15 16 18 18 18 19 20 20 19 19 19 20 22 23 23 23 23 22 22
3 4 4 5 6 8 10 12 14 14 14 14 14 13 13 13 13 14 14 14 15 16 16 17 18 19 19 19 19 19 20 22 23 23 23 23 23 23
3 3 4 5 6 7 8 11 13 15 15 14 14 14 13 13 14 14 14 14 14 16 16 16 17 18 18 19 19 20 21 22 23 23 23 23 23 22
3 3 4 4 5 6 7 9 12 14 15 15 15 15 15 14 14 14 14 14 14 15 15 15 16 17 17 19 19 20 21 22 23 23 23 23 22 22
4 4 4 4 5 6 6 8 10 13 15 16 16 16 16 16 15 15 14 13 13 14 15 15 15 15 16 17 19 20 21 22 22 22 23 22 22 22
4 4 4 4 5 5 6 7 9 12 15 16 16 16 16 16 15 15 14 13 13 14 15 15 15 14 14 15 17 19 21 22 22 22 23 23 22 22
4 4 4 4 5 5 6 7 9 12 14 15 15 15 15 15 15 15 15 15 15 15 15 15 14 13 13 14 16 18 19 21 22 22 23 23 23 22
4 4 3 4 4 5 6 7 9 11 13 14 14 13 14 14 15 15 16 16 16 17 17 16 14 14 13 13 14 16 18 20 22 22 23 23 22 22
4 4 3 3 4 5 6 7 9 10 11 12 12 12 13 14 15 15 16 16 17 17 18 17 16 16 15 14 14 16 17 19 21 22 22 22 22 22
5 4 4 4 5 6 6 7 8 9 10 11 11 12 13 14 15 15 15 15 15 16 17 17 18 17 16 15 15 16 17 19 21 22 22 22 21 21
5 5 4 5 5 6 6 6 8 8 9 9 10 11 12 14 15 15 15 14 14 14 14 15 17 17 16 16 16 17 18 20 21 21 21 21 21 21
4 4 4 5 5 5 5 5 6 6 7 8 9 9 11 14 15 15 15 14 13 13 13 14 15 15 15 16 17 18 19 20 21 21 20 20 20 20
4 4 4 4 4 4 4 4 5 5 6 6 7 9 11 14 15 15 14 13 13 13 13 13 14 14 13 14 16 19 20 21 21 20 20 19 19 20
4 4 4 4 4 4 4 4 4 4 5 5 6 9 12 14 15 14 13 13 13 13 12 13 14 15 14 14 16 19 21 22 21 20 20 20 19 20
5 5 5 5 4 4 4 4 4 4 4 5 7 10 13 15 15 13 12 12 13 12 13 14 16 17 17 16 16 18 21 22 22 21 20 20 19 19
6 5 5 5 5 5 5 5 4 4 5 6 8 11 13 14 14 13 12 12 12 13 13 15 16 17 17 17 17 18 20 22 22 22 21 21 20 19
6 5 5 6 6 6 6 5 5 5 6 7 9 11 13 13 13 13 12 12 12 13 14 15 16 17 17 17 18 19 20 21 21 21 21 22 21 21